Lapse_Rate
2.3 3.1 3.5 3.8 4.2 3.3 3.1 3.0 3.2 5.3 4.5 3.3 4.6 4.0 4.6 5.1 5.2 4.3 3.5 3.7 3.6 4.1 4.0 4.1 4.0 3.6 3.2 3.0 2.4 3.8 4.5 5.7 6.4 6.5 5.9 6.2 7.2 7.4
3.1 3.6 3.8 3.6 3.4 3.0 2.5 2.9 4.0 5.1 5.8 4.1 3.5 3.7 4.1 4.6 5.1 4.4 4.0 4.0 4.3 4.0 3.2 3.5 3.3 3.1 3.5 3.0 2.7 2.9 3.8 5.0 6.3 5.6 5.2 5.5 7.0 7.4
2.4 3.9 3.9 3.1 3.1 2.7 2.8 3.2 3.5 3.2 4.6 4.1 3.1 3.7 4.1 4.5 4.6 4.5 4.7 4.3 3.9 4.3 3.7 3.1 3.0 3.1 2.7 2.1 1.8 2.1 3.1 4.7 5.4 5.3 4.6 5.0 6.2 6.6
3.0 4.0 3.5 3.1 2.7 2.5 2.3 2.6 2.7 3.6 3.4 3.6 3.0 3.2 3.7 4.1 4.1 4.2 4.3 4.1 3.2 3.5 3.9 3.9 3.5 3.1 2.5 1.6 1.6 1.1 2.2 4.3 5.3 5.5 5.2 4.8 5.3 5.7
3.1 2.9 2.8 2.6 2.0 2.3 2.3 2.4 3.5 2.9 2.5 4.3 4.1 3.6 3.0 3.6 4.2 4.2 4.0 3.2 3.2 4.0 4.0 3.8 3.7 3.2 2.9 2.5 1.9 1.5 2.2 4.1 5.3 4.5 5.3 5.6 5.6 4.9
2.5 1.9 2.2 2.1 2.3 2.6 2.7 2.4 2.6 2.3 2.9 4.4 4.4 3.6 3.3 3.0 3.5 4.7 5.2 3.9 3.7 3.9 4.4 3.8 2.5 2.3 2.0 2.2 2.2 2.2 2.8 4.1 3.7 3.5 3.9 4.7 5.4 4.4
2.0 1.9 1.6 2.0 2.0 2.4 2.6 2.7 1.7 2.7 3.5 3.4 3.3 2.7 2.9 2.6 3.7 4.1 4.3 3.8 4.0 4.5 4.7 4.4 2.7 2.3 3.0 3.0 2.4 2.2 2.9 4.3 3.3 4.3 2.4 3.5 3.4 3.5
1.7 1.1 1.6 2.3 1.9 1.4 0.6 1.4 2.3 3.3 3.3 4.0 4.4 4.0 3.3 3.7 3.5 4.4 4.1 3.8 4.9 4.5 4.6 4.5 3.2 3.4 2.5 3.2 2.8 2.9 2.4 2.4 2.3 2.4 3.2 2.9 2.8 3.4
1.3 1.8 1.9 2.4 1.7 2.2 2.1 0.2 -0.2 0.8 1.5 4.8 4.9 4.0 4.0 3.5 3.1 3.0 3.6 4.0 5.0 4.5 3.9 3.9 2.6 2.6 2.5 2.3 3.5 2.9 2.7 2.9 2.4 2.5 2.3 2.1 2.6 3.0
1.7 2.6 2.9 2.9 2.9 2.1 1.9 2.0 3.0 3.5 3.1 3.0 3.9 4.3 4.0 3.5 3.6 4.1 4.2 3.4 3.7 3.8 3.1 4.6 2.2 1.7 1.1 0.8 1.9 2.0 2.2 2.1 1.8 2.1 2.1 2.2 2.2 2.4
2.8 2.8 3.6 3.8 3.9 2.8 2.1 2.0 2.6 2.9 3.2 3.2 3.4 3.5 3.1 3.2 3.3 3.2 3.3 4.1 4.7 4.2 2.9 3.4 2.8 1.5 1.0 0.3 2.0 2.6 2.4 2.2 2.4 2.8 2.3 2.6 2.3 2.6
4.0 3.8 4.1 4.4 3.6 3.3 3.8 3.8 3.2 3.0 2.5 2.2 2.4 2.9 3.1 3.2 3.3 3.8 3.9 4.5 4.5 4.6 3.1 3.9 3.2 1.9 2.9 1.0 1.7 2.6 2.3 2.5 3.2 3.1 2.6 2.6 3.0 2.7
3.6 3.5 3.1 3.3 3.7 3.4 3.4 3.2 3.5 3.2 2.4 3.1 2.5 2.5 2.2 2.7 2.5 3.2 4.1 4.4 4.5 4.9 3.3 3.4 2.9 2.1 2.1 2.8 1.7 2.7 3.1 3.0 2.5 2.5 2.6 2.4 2.7 2.6
3.7 2.8 2.7 3.4 3.4 2.7 2.3 2.1 2.3 2.3 2.5 2.6 2.6 2.5 2.4 2.4 2.9 3.0 3.4 4.3 4.5 4.9 3.2 3.1 3.0 2.7 2.4 3.5 3.3 2.1 2.6 2.7 2.3 1.9 2.0 2.0 2.2 2.5
2.4 2.6 3.0 2.8 2.4 1.4 2.3 2.6 2.0 2.2 2.7 2.8 3.2 2.8 2.6 2.9 2.7 3.7 3.9 4.2 3.7 3.4 3.3 3.2 3.0 3.1 3.5 3.3 3.7 2.9 2.2 1.4 1.4 1.0 1.3 2.0 1.4 1.5
1.9 1.6 1.6 1.1 1.1 1.5 2.0 2.5 3.0 2.8 3.0 3.2 2.8 2.6 2.7 2.8 3.8 5.1 4.7 5.6 4.8 3.9 3.1 3.8 3.4 2.9 2.7 3.0 3.4 3.2 1.7 2.7 1.6 1.4 1.2 1.5 1.7 2.2
2.1 2.3 2.7 2.4 2.5 2.5 2.7 2.7 2.8 2.6 2.9 2.6 3.0 2.8 2.9 3.6 4.6 5.0 4.9 5.3 5.0 4.2 3.6 3.1 2.6 2.1 2.1 2.6 2.5 2.3 1.6 1.8 1.4 1.2 2.2 1.9 1.9 1.7
2.7 3.1 3.4 3.2 3.8 3.8 3.6 3.2 2.9 2.9 2.6 2.8 3.1 3.3 3.6 4.1 5.1 5.2 5.7 5.4 5.1 4.4 3.9 3.8 3.8 3.6 3.0 2.6 2.4 2.1 2.5 1.9 1.7 1.7 2.4 2.1 1.7 1.6
3.3 3.5 4.0 4.6 4.5 3.9 3.6 3.2 3.2 3.1 2.7 3.0 3.4 3.6 4.2 4.5 5.6 5.6 5.3 5.7 5.2 4.5 4.0 3.9 4.4 4.8 4.8 4.4 3.3 2.1 2.7 2.2 2.3 2.4 2.3 2.7 2.4 1.9
3.2 3.7 4.3 4.8 4.4 4.1 4.0 3.8 3.5 3.3 3.5 3.5 3.9 4.1 4.3 4.4 5.6 5.7 5.3 5.7 5.5 4.7 4.4 4.3 4.4 4.7 4.7 3.4 3.3 2.6 2.3 2.4 3.0 3.0 2.3 1.9 1.4 1.2
3.5 3.4 4.4 4.3 4.4 4.3 4.4 4.3 4.1 4.1 4.0 4.1 4.0 4.3 4.2 4.6 5.3 5.4 5.3 5.4 5.4 5.0 4.7 4.6 4.3 3.2 3.0 3.0 3.2 3.0 2.7 2.6 2.9 3.3 2.5 2.8 2.4 2.7
4.0 4.0 4.6 4.2 4.6 4.7 4.8 4.6 4.6 4.3 4.4 4.3 4.3 4.3 4.3 4.7 5.1 5.0 5.1 5.0 4.9 4.8 4.6 4.0 3.9 4.2 3.9 4.2 3.5 2.5 2.9 3.1 3.2 2.5 2.7 2.4 3.3 3.8
4.1 4.4 4.4 4.4 4.5 4.5 4.7 5.0 5.0 4.9 4.4 4.4 4.3 4.3 4.3 4.8 4.9 5.1 5.1 4.9 4.7 4.5 4.6 4.5 4.4 4.4 4.2 4.1 3.7 3.3 2.9 3.4 3.7 4.2 3.9 3.4 3.6 4.2
Wind_Speed
9 8 7 6 6 4 4 4 4 2 4 3 3 5 8 10 11 8 6 4 5 8 11 15 16 16 16 19 21 20 22 21 24 22 21 21 28 33
7 10 6 4 7 5 4 3 4 6 5 3 5 4 4 7 10 6 5 6 7 10 12 15 17 15 18 18 19 19 22 30 26 18 28 31 30 37
8 10 10 8 6 4 3 3 5 4 6 2 3 2 3 3 3 3 6 4 7 15 16 16 19 20 20 22 16 19 22 28 20 14 9 35 23 26
11 11 10 5 5 5 4 5 3 3 3 5 3 2 4 2 3 2 2 4 6 13 18 21 22 21 21 24 19 19 23 21 18 12 10 18 33 32
13 12 9 8 5 3 4 4 4 3 3 4 2 1 2 1 1 1 2 2 6 15 17 19 22 20 21 21 21 18 22 21 19 17 31 21 18 29
10 8 7 8 8 8 7 7 5 4 3 4 4 3 3 2 2 2 2 2 6 12 18 15 19 21 20 20 21 18 17 16 20 24 28 35 34 35
6 6 7 7 9 8 5 7 6 4 3 5 4 2 2 1 2 1 2 2 5 3 6 6 5 8 10 12 15 16 18 21 11 33 28 34 37 34
10 6 5 7 7 8 9 8 7 6 5 3 3 4 2 2 2 1 1 2 2 2 4 5 5 5 4 8 11 12 23 26 32 36 38 41 39 42
8 6 5 5 7 6 8 7 6 6 7 4 5 4 4 5 3 1 2 2 2 2 3 3 4 5 7 10 13 17 25 32 39 35 39 38 42 43
7 6 6 6 6 6 5 4 3 4 5 4 4 4 4 3 3 2 2 3 1 0 2 2 3 3 6 12 8 24 31 37 39 38 40 38 37 39
4 5 5 4 5 7 5 4 3 3 2 3 5 5 6 5 4 3 2 2 1 1 1 1 2 3 4 7 11 21 31 42 41 39 42 40 38 38
1 1 5 3 5 5 4 4 4 3 3 2 2 2 3 3 8 5 3 3 2 1 3 1 1 2 3 4 6 10 21 34 39 39 42 42 37 28
4 4 3 2 2 2 3 3 4 3 3 4 4 2 2 3 2 3 3 3 3 2 3 2 2 1 2 2 4 5 11 19 23 33 38 38 36 32
5 3 4 6 4 2 1 4 4 2 2 3 4 3 2 2 2 3 3 3 5 2 7 2 2 2 3 4 3 3 6 15 19 13 21 25 29 27
1 4 5 2 2 2 2 4 4 4 4 3 4 3 3 3 4 2 4 6 7 4 6 2 2 4 2 4 5 6 8 4 13 11 16 15 17 22
5 2 1 2 2 2 1 3 2 4 5 5 3 4 4 3 3 2 3 3 2 2 6 7 7 3 5 6 9 7 9 4 5 9 10 13 16 15
3 1 1 1 1 2 1 1 2 3 4 3 4 4 5 5 3 3 3 2 2 3 2 4 11 13 6 7 7 7 8 10 8 9 10 8 7 13
2 1 1 1 2 2 2 2 2 3 4 4 4 5 5 6 4 3 3 3 5 4 5 4 6 6 5 9 10 8 7 8 7 8 9 8 5 8
1 1 1 1 2 1 2 2 3 3 4 4 5 6 5 5 6 4 4 5 5 5 5 5 5 7 6 3 2 9 9 9 7 7 7 3 5 6
1 2 1 2 2 2 2 2 2 3 4 4 5 6 6 6 6 6 5 5 6 5 5 4 4 5 5 6 4 2 9 10 9 8 5 6 12 16
2 2 1 1 2 2 2 2 3 3 3 4 4 5 6 6 7 6 5 8 8 5 6 4 4 10 7 6 5 3 3 9 10 10 8 7 5 4
2 2 2 2 2 2 2 2 2 3 4 4 4 5 5 6 7 8 7 8 6 6 4 6 8 7 2 2 7 9 6 4 12 16 9 6 6 6
2 2 2 1 1 2 3 3 3 3 3 3 4 4 5 6 6 7 7 7 7 7 8 7 5 3 2 5 7 7 8 8 4 5 4 10 8 6
Wind_Direction
169 196 198 183 183 186 180 171 172 248 237 217 211 226 238 252 263 267 270 279 274 286 299 306 306 303 303 310 305 303 303 279 258 249 259 258 243 220
172 186 170 176 184 181 184 189 198 233 265 171 222 215 224 245 263 267 265 262 269 284 291 307 301 304 299 297 294 291 291 277 259 260 260 251 241 214
161 174 183 174 188 182 183 187 216 211 254 248 205 228 233 243 257 268 279 300 325 329 323 312 307 301 297 290 287 281 279 253 230 261 296 220 205 180
169 182 188 171 180 183 190 198 196 208 213 262 221 244 232 219 241 262 261 334 333 318 316 311 301 296 290 289 291 281 282 246 219 185 85 116 143 152
179 181 176 175 184 169 176 183 218 217 193 246 266 226 262 248 277 316 282 351 330 320 302 295 289 287 280 283 287 283 279 228 208 188 147 156 153 143
180 171 166 176 177 183 190 198 203 195 188 237 247 225 214 200 193 233 291 70 330 317 298 292 294 296 280 269 276 272 249 175 185 149 142 140 137 132
163 170 175 184 185 180 174 199 181 169 189 218 236 185 208 218 206 104 275 354 317 309 301 305 318 306 296 273 263 249 191 153 144 128 115 116 120 120
171 150 152 174 173 190 207 204 174 181 201 189 236 233 226 192 170 176 267 59 329 30 312 305 338 319 315 284 241 206 149 134 148 131 128 123 121 118
150 156 163 190 189 184 196 184 211 211 214 191 213 199 202 189 160 194 223 139 205 328 303 295 346 328 333 322 234 184 149 140 124 120 118 120 122 120
147 163 176 184 190 195 178 165 185 205 195 191 183 191 207 163 167 188 203 120 122 229 306 291 334 321 331 358 175 151 143 126 118 121 117 114 113 113
134 152 176 184 220 210 180 177 172 224 188 196 197 205 199 194 179 139 189 117 205 231 313 284 325 330 343 9 14 125 136 127 123 121 119 116 114 112
11 80 228 219 233 207 192 191 188 207 118 98 119 178 185 205 196 202 174 149 147 239 204 165 267 353 22 354 11 84 103 115 120 123 121 119 117 115
186 185 163 198 236 186 183 204 214 149 174 176 162 167 143 152 168 205 200 145 160 215 198 157 154 101 64 94 12 50 103 109 116 121 121 123 125 125
204 185 183 189 215 246 208 221 225 175 154 162 151 152 156 141 176 211 196 183 181 221 165 197 142 162 139 114 101 68 81 111 116 109 111 111 113 119
187 194 177 199 291 325 270 269 199 173 165 172 169 156 154 159 149 134 86 103 83 94 131 189 150 130 125 129 131 127 119 74 121 116 114 120 120 120
181 179 186 160 195 217 193 243 203 188 176 183 159 142 137 142 146 137 125 163 97 75 58 96 96 96 103 109 130 122 128 123 124 114 112 105 110 124
153 156 198 141 202 165 186 181 203 167 152 143 154 154 154 151 142 130 122 159 129 133 110 74 75 80 73 128 115 124 123 123 125 127 120 112 104 124
173 166 159 188 213 193 159 195 190 175 150 155 161 159 165 153 143 130 147 145 138 133 124 126 119 104 96 48 52 126 128 129 132 128 131 123 115 125
185 159 179 193 231 187 185 176 191 181 150 166 160 163 162 145 146 152 145 137 136 140 138 140 141 136 132 111 69 26 137 135 128 125 129 112 144 158
167 169 209 221 199 175 183 200 181 161 174 170 165 167 159 157 155 158 152 140 142 135 137 134 146 152 150 150 136 99 145 143 148 141 117 93 85 116
204 181 199 213 214 170 184 202 189 174 174 172 166 165 161 162 177 162 156 148 145 144 153 151 132 105 108 100 100 120 114 147 153 151 141 127 124 139
214 189 230 214 202 175 180 180 175 174 174 169 159 161 166 170 176 169 164 162 161 156 141 127 135 134 113 122 140 140 141 124 131 144 115 103 160 165
216 208 225 229 213 185 179 178 183 179 165 159 157 162 167 173 167 164 158 158 154 149 144 143 141 133 106 139 138 145 143 144 141 144 135 138 120 101